Year,Month,Day,Hour,Minute,Value (Times are PST for temperature in C)
2020,10,01,00,00,12.70
2020,10,01,00,01,12.70
2020,10,01,00,02,12.70
2020,10,01,00,03,12.70
2020,10,01,00,04,12.70
2020,10,01,00,05,12.70
2020,10,01,00,06,12.70
2020,10,01,00,07,12.70
2020,10,01,00,08,12.70
2020,10,01,00,09,12.60
2020,10,01,00,10,12.60
2020,10,01,00,11,12.60
2020,10,01,00,12,12.60
2020,10,01,00,13,12.60
2020,10,01,00,14,12.60
2020,10,01,00,15,12.60
2020,10,01,00,16,12.60
2020,10,01,00,17,12.60
2020,10,01,00,18,12.50
2020,10,01,00,19,12.50
2020,10,01,00,20,12.50
2020,10,01,00,21,12.50
2020,10,01,00,22,12.50
2020,10,01,00,23,12.50
2020,10,01,00,24,12.40
2020,10,01,00,25,12.40
2020,10,01,00,26,12.40
2020,10,01,00,27,12.40
2020,10,01,00,28,12.40
2020,10,01,00,29,12.40
2020,10,01,00,30,12.40
2020,10,01,00,31,12.40
2020,10,01,00,32,12.40
2020,10,01,00,33,12.30
2020,10,01,00,34,12.30
2020,10,01,00,35,12.30
2020,10,01,00,36,12.30
2020,10,01,00,37,12.30
2020,10,01,00,38,12.30
2020,10,01,00,39,12.30
2020,10,01,00,40,12.30
2020,10,01,00,41,12.20
2020,10,01,00,42,12.20
2020,10,01,00,43,12.20
2020,10,01,00,44,12.20
2020,10,01,00,45,12.20
2020,10,01,00,46,12.20
2020,10,01,00,47,12.20
2020,10,01,00,48,12.20
2020,10,01,00,49,12.20
2020,10,01,00,50,12.20
2020,10,01,00,51,12.20
2020,10,01,00,52,12.20
2020,10,01,00,53,12.20
2020,10,01,00,54,12.20
2020,10,01,00,55,12.20
2020,10,01,00,56,12.20
2020,10,01,00,57,12.20
2020,10,01,00,58,12.20
2020,10,01,00,59,12.20
2020,10,01,01,00,12.20
2020,10,01,01,01,12.20
2020,10,01,01,02,12.20
2020,10,01,01,03,12.20
2020,10,01,01,04,12.20
2020,10,01,01,05,12.20
2020,10,01,01,06,12.20
2020,10,01,01,07,12.20
2020,10,01,01,08,12.20
2020,10,01,01,09,12.20
2020,10,01,01,10,12.20
2020,10,01,01,11,12.20
2020,10,01,01,12,12.20
2020,10,01,01,13,12.20
2020,10,01,01,14,12.20
2020,10,01,01,15,12.20
2020,10,01,01,16,12.20
2020,10,01,01,17,12.20
2020,10,01,01,18,12.20
2020,10,01,01,19,12.20
2020,10,01,01,20,12.10
2020,10,01,01,21,12.10
2020,10,01,01,22,12.10
2020,10,01,01,23,12.10
2020,10,01,01,24,12.10
2020,10,01,01,25,12.10
2020,10,01,01,26,12.10
2020,10,01,01,27,12.10
2020,10,01,01,28,12.10
2020,10,01,01,29,12.00
2020,10,01,01,30,12.00
2020,10,01,01,31,12.00
2020,10,01,01,32,12.00
2020,10,01,01,33,12.00
2020,10,01,01,34,12.00
2020,10,01,01,35,11.90
2020,10,01,01,36,12.00
2020,10,01,01,37,11.90
2020,10,01,01,38,11.90
2020,10,01,01,39,11.90
2020,10,01,01,40,11.90
2020,10,01,01,41,11.90
2020,10,01,01,42,11.90
2020,10,01,01,43,11.90
2020,10,01,01,44,11.90
2020,10,01,01,45,11.90
2020,10,01,01,46,11.90
2020,10,01,01,47,11.90
2020,10,01,01,48,11.90
2020,10,01,01,49,12.00
2020,10,01,01,50,12.00
2020,10,01,01,51,12.00
2020,10,01,01,52,12.00
2020,10,01,01,53,12.00
2020,10,01,01,54,12.00
2020,10,01,01,55,11.90
2020,10,01,01,56,11.90
2020,10,01,01,57,11.90
2020,10,01,01,58,11.90
2020,10,01,01,59,11.90
2020,10,01,02,00,11.90
2020,10,01,02,01,11.90
2020,10,01,02,02,11.90
2020,10,01,02,03,11.80
2020,10,01,02,04,11.80
2020,10,01,02,05,11.80
2020,10,01,02,06,11.80
2020,10,01,02,07,11.80
2020,10,01,02,08,11.80
2020,10,01,02,09,11.80
2020,10,01,02,10,11.70
2020,10,01,02,11,11.70
2020,10,01,02,12,11.70
2020,10,01,02,13,11.70
2020,10,01,02,14,11.70
2020,10,01,02,15,11.70
2020,10,01,02,16,11.70
2020,10,01,02,17,11.70
2020,10,01,02,18,11.70
2020,10,01,02,19,11.70
2020,10,01,02,20,11.70
2020,10,01,02,21,11.70
2020,10,01,02,22,11.70
2020,10,01,02,23,11.70
2020,10,01,02,24,11.70
2020,10,01,02,25,11.70
2020,10,01,02,26,11.70
2020,10,01,02,27,11.70
2020,10,01,02,28,11.70
2020,10,01,02,29,11.70
2020,10,01,02,30,11.70
2020,10,01,02,31,11.60
2020,10,01,02,32,11.70
2020,10,01,02,33,11.60
2020,10,01,02,34,11.60
2020,10,01,02,35,11.60
2020,10,01,02,36,11.60
2020,10,01,02,37,11.60
2020,10,01,02,38,11.60
2020,10,01,02,39,11.60
2020,10,01,02,40,11.70
2020,10,01,02,41,11.70
2020,10,01,02,42,11.70
2020,10,01,02,43,11.70
2020,10,01,02,44,11.70
2020,10,01,02,45,11.70
2020,10,01,02,46,11.60
2020,10,01,02,47,11.60
2020,10,01,02,48,11.60
2020,10,01,02,49,11.60
2020,10,01,02,50,11.60
2020,10,01,02,51,11.60
2020,10,01,02,52,11.50
2020,10,01,02,53,11.50
2020,10,01,02,54,11.50
2020,10,01,02,55,11.50
2020,10,01,02,56,11.50
2020,10,01,02,57,11.50
2020,10,01,02,58,11.50
2020,10,01,02,59,11.50
2020,10,01,03,00,11.50
2020,10,01,03,01,11.50
2020,10,01,03,02,11.50
2020,10,01,03,03,11.50
2020,10,01,03,04,11.50
2020,10,01,03,05,11.50
2020,10,01,03,06,11.50
2020,10,01,03,07,11.50
2020,10,01,03,08,11.50
2020,10,01,03,09,11.50
2020,10,01,03,10,11.50
2020,10,01,03,11,11.50
2020,10,01,03,12,11.50
2020,10,01,03,13,11.50
2020,10,01,03,14,11.50
2020,10,01,03,15,11.50
2020,10,01,03,16,11.50
2020,10,01,03,17,11.50
2020,10,01,03,18,11.50
2020,10,01,03,19,11.50
2020,10,01,03,20,11.50
2020,10,01,03,21,11.40
2020,10,01,03,22,11.40
2020,10,01,03,23,11.40
2020,10,01,03,24,11.40
2020,10,01,03,25,11.40
2020,10,01,03,26,11.40
2020,10,01,03,27,11.40
2020,10,01,03,28,11.40
2020,10,01,03,29,11.40
2020,10,01,03,30,11.40
2020,10,01,03,31,11.40
2020,10,01,03,32,11.40
2020,10,01,03,33,11.40
2020,10,01,03,34,11.40
2020,10,01,03,35,11.40
2020,10,01,03,36,11.40
2020,10,01,03,37,11.40
2020,10,01,03,38,11.40
2020,10,01,03,39,11.40
2020,10,01,03,40,11.40
2020,10,01,03,41,11.40
2020,10,01,03,42,11.40
2020,10,01,03,43,11.40
2020,10,01,03,44,11.40
2020,10,01,03,45,11.40
2020,10,01,03,46,11.40
2020,10,01,03,47,11.40
2020,10,01,03,48,11.40
2020,10,01,03,49,11.30
2020,10,01,03,50,11.30
2020,10,01,03,51,11.30
2020,10,01,03,52,11.30
2020,10,01,03,53,11.30
2020,10,01,03,54,11.30
2020,10,01,03,55,11.30
2020,10,01,03,56,11.30
2020,10,01,03,57,11.30
2020,10,01,03,58,11.30
2020,10,01,03,59,11.30
2020,10,01,04,00,11.30
2020,10,01,04,01,11.30
2020,10,01,04,02,11.30
2020,10,01,04,03,11.30
2020,10,01,04,04,11.30
2020,10,01,04,05,11.30
2020,10,01,04,06,11.30
2020,10,01,04,07,11.30
2020,10,01,04,08,11.20
2020,10,01,04,09,11.20
2020,10,01,04,10,11.20
2020,10,01,04,11,11.20
2020,10,01,04,12,11.20
2020,10,01,04,13,11.10
2020,10,01,04,14,11.10
2020,10,01,04,15,11.00
2020,10,01,04,16,11.00
2020,10,01,04,17,11.00
2020,10,01,04,18,10.90
2020,10,01,04,19,10.90
2020,10,01,04,20,10.90
2020,10,01,04,21,10.90
2020,10,01,04,22,10.80
2020,10,01,04,23,10.80
2020,10,01,04,24,10.80
2020,10,01,04,25,10.80
2020,10,01,04,26,10.80
2020,10,01,04,27,10.80
2020,10,01,04,28,10.80
2020,10,01,04,29,10.80
2020,10,01,04,30,10.80
2020,10,01,04,31,10.80
2020,10,01,04,32,10.80
2020,10,01,04,33,10.80
2020,10,01,04,34,10.80
2020,10,01,04,35,10.80
2020,10,01,04,36,10.80
2020,10,01,04,37,10.80
2020,10,01,04,38,10.80
2020,10,01,04,39,10.80
2020,10,01,04,40,10.80
2020,10,01,04,41,10.70
2020,10,01,04,42,10.70
2020,10,01,04,43,10.70
2020,10,01,04,44,10.70
2020,10,01,04,45,10.70
2020,10,01,04,46,10.70
2020,10,01,04,47,10.60
2020,10,01,04,48,10.60
2020,10,01,04,49,10.60
2020,10,01,04,50,10.60
2020,10,01,04,51,10.60
2020,10,01,04,52,10.60
2020,10,01,04,53,10.60
2020,10,01,04,54,10.60
2020,10,01,04,55,10.60
2020,10,01,04,56,10.60
2020,10,01,04,57,10.60
2020,10,01,04,58,10.60
2020,10,01,04,59,10.60
2020,10,01,05,00,10.60
2020,10,01,05,01,10.50
2020,10,01,05,02,10.60
2020,10,01,05,03,10.50
2020,10,01,05,04,10.50
2020,10,01,05,05,10.50
2020,10,01,05,06,10.60
2020,10,01,05,07,10.60
2020,10,01,05,08,10.60
2020,10,01,05,09,10.60
2020,10,01,05,10,10.60
2020,10,01,05,11,10.60
2020,10,01,05,12,10.60
2020,10,01,05,13,10.60
2020,10,01,05,14,10.60
2020,10,01,05,15,10.50
2020,10,01,05,16,10.50
2020,10,01,05,17,10.50
2020,10,01,05,18,10.50
2020,10,01,05,19,10.50
2020,10,01,05,20,10.50
2020,10,01,05,21,10.50
2020,10,01,05,22,10.50
2020,10,01,05,23,10.50
2020,10,01,05,24,10.50
2020,10,01,05,25,10.50
2020,10,01,05,26,10.50
2020,10,01,05,27,10.50
2020,10,01,05,28,10.40
2020,10,01,05,29,10.40
2020,10,01,05,30,10.40
2020,10,01,05,31,10.40
2020,10,01,05,32,10.40
2020,10,01,05,33,10.40
2020,10,01,05,34,10.40
2020,10,01,05,35,10.40
2020,10,01,05,36,10.40
2020,10,01,05,37,10.40
2020,10,01,05,38,10.40
2020,10,01,05,39,10.40
2020,10,01,05,40,10.40
2020,10,01,05,41,10.30
2020,10,01,05,42,10.30
2020,10,01,05,43,10.30
2020,10,01,05,44,10.30
2020,10,01,05,45,10.40
2020,10,01,05,46,10.40
2020,10,01,05,47,10.30
2020,10,01,05,48,10.30
2020,10,01,05,49,10.30
2020,10,01,05,50,10.30
2020,10,01,05,51,10.30
2020,10,01,05,52,10.30
2020,10,01,05,53,10.30
2020,10,01,05,54,10.30
2020,10,01,05,55,10.30
2020,10,01,05,56,10.30
2020,10,01,05,57,10.30
2020,10,01,05,58,10.30
2020,10,01,05,59,10.30
2020,10,01,06,00,10.30
2020,10,01,06,01,10.30
2020,10,01,06,02,10.30
2020,10,01,06,03,10.30
2020,10,01,06,04,10.30
2020,10,01,06,05,10.30
2020,10,01,06,06,10.30
2020,10,01,06,07,10.30
2020,10,01,06,08,10.30
2020,10,01,06,09,10.30
2020,10,01,06,10,10.30
2020,10,01,06,11,10.30
2020,10,01,06,12,10.30
2020,10,01,06,13,10.30
2020,10,01,06,14,10.20
2020,10,01,06,15,10.20
2020,10,01,06,16,10.20
2020,10,01,06,17,10.20
2020,10,01,06,18,10.20
2020,10,01,06,19,10.20
2020,10,01,06,20,10.20
2020,10,01,06,21,10.20
2020,10,01,06,22,10.20
2020,10,01,06,23,10.20
2020,10,01,06,24,10.20
2020,10,01,06,25,10.20
2020,10,01,06,26,10.20
2020,10,01,06,27,10.20
2020,10,01,06,28,10.20
2020,10,01,06,29,10.20
2020,10,01,06,30,10.20
2020,10,01,06,31,10.20
2020,10,01,06,32,10.20
2020,10,01,06,33,10.20
2020,10,01,06,34,10.20
2020,10,01,06,35,10.20
2020,10,01,06,36,10.10
2020,10,01,06,37,10.10
2020,10,01,06,38,10.10
2020,10,01,06,39,10.10
2020,10,01,06,40,10.10
2020,10,01,06,41,10.10
2020,10,01,06,42,10.10
2020,10,01,06,43,10.10
2020,10,01,06,44,10.10
2020,10,01,06,45,10.10
2020,10,01,06,46,10.10
2020,10,01,06,47,10.00
2020,10,01,06,48,10.00
2020,10,01,06,49,10.00
2020,10,01,06,50,10.00
2020,10,01,06,51,10.00
2020,10,01,06,52,10.00
2020,10,01,06,53,10.00
2020,10,01,06,54,10.00
2020,10,01,06,55,9.90
2020,10,01,06,56,9.90
2020,10,01,06,57,9.90
2020,10,01,06,58,9.90
2020,10,01,06,59,9.90
2020,10,01,07,00,9.90
2020,10,01,07,01,9.90
2020,10,01,07,02,9.80
2020,10,01,07,03,9.80
2020,10,01,07,04,9.80
2020,10,01,07,05,9.80
2020,10,01,07,06,9.80
2020,10,01,07,07,9.80
2020,10,01,07,08,9.80
2020,10,01,07,09,9.90
2020,10,01,07,10,9.90
2020,10,01,07,11,9.90
2020,10,01,07,12,9.90
2020,10,01,07,13,9.90
2020,10,01,07,14,9.90
2020,10,01,07,15,9.90
2020,10,01,07,16,9.90
2020,10,01,07,17,9.90
2020,10,01,07,18,9.90
2020,10,01,07,19,9.90
2020,10,01,07,20,9.90
2020,10,01,07,21,9.90
2020,10,01,07,22,9.90
2020,10,01,07,23,9.90
2020,10,01,07,24,9.80
2020,10,01,07,25,9.80
2020,10,01,07,26,9.80
2020,10,01,07,27,9.80
2020,10,01,07,28,9.80
2020,10,01,07,29,9.80
2020,10,01,07,30,9.90
2020,10,01,07,31,9.90
2020,10,01,07,32,9.80
2020,10,01,07,33,9.80
2020,10,01,07,34,9.80
2020,10,01,07,35,9.80
2020,10,01,07,36,9.80
2020,10,01,07,37,9.80
2020,10,01,07,38,9.80
2020,10,01,07,39,9.80
2020,10,01,07,40,9.80
2020,10,01,07,41,9.80
2020,10,01,07,42,9.80
2020,10,01,07,43,9.80
2020,10,01,07,44,9.80
2020,10,01,07,45,9.80
2020,10,01,07,46,9.80
2020,10,01,07,47,9.80
2020,10,01,07,48,9.90
2020,10,01,07,49,9.90
2020,10,01,07,50,9.90
2020,10,01,07,51,9.90
2020,10,01,07,52,9.90
2020,10,01,07,53,9.90
2020,10,01,07,54,9.90
2020,10,01,07,55,9.90
2020,10,01,07,56,10.00
2020,10,01,07,57,10.00
2020,10,01,07,58,10.00
2020,10,01,07,59,10.00
2020,10,01,08,00,10.00
2020,10,01,08,01,10.00
2020,10,01,08,02,10.00
2020,10,01,08,03,10.00
2020,10,01,08,04,10.00
2020,10,01,08,05,10.00
2020,10,01,08,06,10.00
2020,10,01,08,07,10.00
2020,10,01,08,08,10.00
2020,10,01,08,09,10.10
2020,10,01,08,10,10.10
2020,10,01,08,11,10.10
2020,10,01,08,12,10.10
2020,10,01,08,13,10.10
2020,10,01,08,14,10.10
2020,10,01,08,15,10.10
2020,10,01,08,16,10.10
2020,10,01,08,17,10.10
2020,10,01,08,18,10.20
2020,10,01,08,19,10.20
2020,10,01,08,20,10.20
2020,10,01,08,21,10.20
2020,10,01,08,22,10.20
2020,10,01,08,23,10.20
2020,10,01,08,24,10.30
2020,10,01,08,25,10.30
2020,10,01,08,26,10.30
2020,10,01,08,27,10.30
2020,10,01,08,28,10.30
2020,10,01,08,29,10.40
2020,10,01,08,30,10.40
2020,10,01,08,31,10.50
2020,10,01,08,32,10.50
2020,10,01,08,33,10.60
2020,10,01,08,34,10.70
2020,10,01,08,35,10.70
2020,10,01,08,36,10.80
2020,10,01,08,37,10.80
2020,10,01,08,38,10.90
2020,10,01,08,39,11.00
2020,10,01,08,40,11.10
2020,10,01,08,41,11.20
2020,10,01,08,42,11.20
2020,10,01,08,43,11.30
2020,10,01,08,44,11.30
2020,10,01,08,45,11.30
2020,10,01,08,46,11.30
2020,10,01,08,47,11.30
2020,10,01,08,48,11.40
2020,10,01,08,49,11.40
2020,10,01,08,50,11.50
2020,10,01,08,51,11.50
2020,10,01,08,52,11.60
2020,10,01,08,53,11.60
2020,10,01,08,54,11.70
2020,10,01,08,55,11.70
2020,10,01,08,56,11.70
2020,10,01,08,57,11.70
2020,10,01,08,58,11.70
2020,10,01,08,59,11.70
2020,10,01,09,00,11.70
2020,10,01,09,01,11.70
2020,10,01,09,02,11.70
2020,10,01,09,03,11.80
2020,10,01,09,04,11.80
2020,10,01,09,05,11.80
2020,10,01,09,06,11.90
2020,10,01,09,07,11.90
2020,10,01,09,08,12.00
2020,10,01,09,09,12.00
2020,10,01,09,10,12.10
2020,10,01,09,11,12.20
2020,10,01,09,12,12.20
2020,10,01,09,13,12.30
2020,10,01,09,14,12.30
2020,10,01,09,15,12.30
2020,10,01,09,16,12.40
2020,10,01,09,17,12.40
2020,10,01,09,18,12.50
2020,10,01,09,19,12.60
2020,10,01,09,20,12.60
2020,10,01,09,21,12.70
2020,10,01,09,22,12.80
2020,10,01,09,23,12.80
2020,10,01,09,24,12.90
2020,10,01,09,25,13.00
2020,10,01,09,26,13.10
2020,10,01,09,27,13.20
2020,10,01,09,28,13.40
2020,10,01,09,29,13.50
2020,10,01,09,30,13.60
2020,10,01,09,31,13.80
2020,10,01,09,32,13.90
2020,10,01,09,33,14.00
2020,10,01,09,34,14.10
2020,10,01,09,35,14.10
2020,10,01,09,36,14.20
2020,10,01,09,37,14.30
2020,10,01,09,38,14.40
2020,10,01,09,39,14.60
2020,10,01,09,40,14.70
2020,10,01,09,41,14.80
2020,10,01,09,42,14.80
2020,10,01,09,43,14.90
2020,10,01,09,44,14.90
2020,10,01,09,45,15.00
2020,10,01,09,46,15.10
2020,10,01,09,47,15.10
2020,10,01,09,48,15.20
2020,10,01,09,49,15.30
2020,10,01,09,50,15.40
2020,10,01,09,51,15.40
2020,10,01,09,52,15.40
2020,10,01,09,53,15.50
2020,10,01,09,54,15.50
2020,10,01,09,55,15.60
2020,10,01,09,56,15.60
2020,10,01,09,57,15.60
2020,10,01,09,58,15.70
2020,10,01,09,59,15.70
2020,10,01,10,00,15.70
2020,10,01,10,01,15.80
2020,10,01,10,02,15.80
2020,10,01,10,03,15.90
2020,10,01,10,04,16.00
2020,10,01,10,05,16.10
2020,10,01,10,06,16.10
2020,10,01,10,07,16.10
2020,10,01,10,08,16.10
2020,10,01,10,09,16.10
2020,10,01,10,10,16.00
2020,10,01,10,11,16.00
2020,10,01,10,12,16.00
2020,10,01,10,13,16.10
2020,10,01,10,14,16.10
2020,10,01,10,15,16.10
2020,10,01,10,16,16.10
2020,10,01,10,17,16.10
2020,10,01,10,18,16.10
2020,10,01,10,19,16.10
2020,10,01,10,20,16.10
2020,10,01,10,21,16.10
2020,10,01,10,22,16.20
2020,10,01,10,23,16.20
2020,10,01,10,24,16.20
2020,10,01,10,25,16.30
2020,10,01,10,26,16.30
2020,10,01,10,27,16.30
2020,10,01,10,28,16.40
2020,10,01,10,29,16.40
2020,10,01,10,30,16.40
2020,10,01,10,31,16.40
2020,10,01,10,32,16.40
2020,10,01,10,33,16.50
2020,10,01,10,34,16.50
2020,10,01,10,35,16.50
2020,10,01,10,36,16.60
2020,10,01,10,37,16.60
2020,10,01,10,38,16.50
2020,10,01,10,39,16.60
2020,10,01,10,40,16.60
2020,10,01,10,41,16.60
2020,10,01,10,42,16.60
2020,10,01,10,43,16.70
2020,10,01,10,44,16.70
2020,10,01,10,45,16.70
2020,10,01,10,46,16.80
2020,10,01,10,47,16.90
2020,10,01,10,48,16.90
2020,10,01,10,49,17.00
2020,10,01,10,50,17.20
2020,10,01,10,51,17.20
2020,10,01,10,52,17.40
2020,10,01,10,53,17.40
2020,10,01,10,54,17.50
2020,10,01,10,55,17.60
2020,10,01,10,56,17.60
2020,10,01,10,57,17.70
2020,10,01,10,58,17.70
2020,10,01,10,59,17.70
2020,10,01,11,00,17.70
2020,10,01,11,01,17.70
2020,10,01,11,02,17.70
2020,10,01,11,03,17.80
2020,10,01,11,04,17.90
2020,10,01,11,05,18.00
2020,10,01,11,06,18.10
2020,10,01,11,07,18.10
2020,10,01,11,08,18.20
2020,10,01,11,09,18.30
2020,10,01,11,10,18.40
2020,10,01,11,11,18.50
2020,10,01,11,12,18.50
2020,10,01,11,13,18.60
2020,10,01,11,14,18.60
2020,10,01,11,15,18.60
2020,10,01,11,16,18.70
2020,10,01,11,17,18.80
2020,10,01,11,18,18.80
2020,10,01,11,19,18.90
2020,10,01,11,20,19.00
2020,10,01,11,21,19.00
2020,10,01,11,22,19.00
2020,10,01,11,23,19.10
2020,10,01,11,24,19.10
2020,10,01,11,25,19.10
2020,10,01,11,26,19.20
2020,10,01,11,27,19.20
2020,10,01,11,28,19.30
2020,10,01,11,29,19.30
2020,10,01,11,30,19.40
2020,10,01,11,31,19.40
2020,10,01,11,32,19.50
2020,10,01,11,33,19.60
2020,10,01,11,34,19.70
2020,10,01,11,35,19.70
2020,10,01,11,36,19.80
2020,10,01,11,37,19.80
2020,10,01,11,38,19.90
2020,10,01,11,39,19.90
2020,10,01,11,40,20.00
2020,10,01,11,41,20.10
2020,10,01,11,42,20.10
2020,10,01,11,43,20.10
2020,10,01,11,44,20.00
2020,10,01,11,45,20.00
2020,10,01,11,46,19.90
2020,10,01,11,47,19.90
2020,10,01,11,48,19.90
2020,10,01,11,49,19.80
2020,10,01,11,50,19.70
2020,10,01,11,51,19.70
2020,10,01,11,52,19.70
2020,10,01,11,53,19.60
2020,10,01,11,54,19.60
2020,10,01,11,55,19.60
2020,10,01,11,56,19.50
2020,10,01,11,57,19.50
2020,10,01,11,58,19.50
2020,10,01,11,59,19.50
2020,10,01,12,00,19.40
2020,10,01,12,01,19.40
2020,10,01,12,02,19.40
2020,10,01,12,03,19.40
2020,10,01,12,04,19.40
2020,10,01,12,05,19.40
2020,10,01,12,06,19.40
2020,10,01,12,07,19.40
2020,10,01,12,08,19.40
2020,10,01,12,09,19.40
2020,10,01,12,10,19.40
2020,10,01,12,11,19.40
2020,10,01,12,12,19.40
2020,10,01,12,13,19.40
2020,10,01,12,14,19.30
2020,10,01,12,15,19.30
2020,10,01,12,16,19.40
2020,10,01,12,17,19.40
2020,10,01,12,18,19.40
2020,10,01,12,19,19.40
2020,10,01,12,20,19.40
2020,10,01,12,21,19.50
2020,10,01,12,22,19.60
2020,10,01,12,23,19.60
2020,10,01,12,24,19.60
2020,10,01,12,25,19.60
2020,10,01,12,26,19.60
2020,10,01,12,27,19.60
2020,10,01,12,28,19.60
2020,10,01,12,29,19.60
2020,10,01,12,30,19.60
2020,10,01,12,31,19.70
2020,10,01,12,32,19.70
2020,10,01,12,33,19.80
2020,10,01,12,34,19.80
2020,10,01,12,35,19.90
2020,10,01,12,36,20.00
2020,10,01,12,37,20.10
2020,10,01,12,38,20.10
2020,10,01,12,39,20.20
2020,10,01,12,40,20.20
2020,10,01,12,41,20.20
2020,10,01,12,42,20.20
2020,10,01,12,43,20.20
2020,10,01,12,44,20.20
2020,10,01,12,45,20.30
2020,10,01,12,46,20.30
2020,10,01,12,47,20.20
2020,10,01,12,48,20.20
2020,10,01,12,49,20.20
2020,10,01,12,50,20.20
2020,10,01,12,51,20.20
2020,10,01,12,52,20.30
2020,10,01,12,53,20.30
2020,10,01,12,54,20.40
2020,10,01,12,55,20.50
2020,10,01,12,56,20.50
2020,10,01,12,57,20.60
2020,10,01,12,58,20.60
2020,10,01,12,59,20.60
2020,10,01,13,00,20.50
2020,10,01,13,01,20.50
2020,10,01,13,02,20.50
2020,10,01,13,03,20.50
2020,10,01,13,04,20.60
2020,10,01,13,05,20.60
2020,10,01,13,06,20.60
2020,10,01,13,07,20.60
2020,10,01,13,08,20.60
2020,10,01,13,09,20.60
2020,10,01,13,10,20.60
2020,10,01,13,11,20.60
2020,10,01,13,12,20.70
2020,10,01,13,13,20.70
2020,10,01,13,14,20.80
2020,10,01,13,15,20.80
2020,10,01,13,16,20.80
2020,10,01,13,17,20.70
2020,10,01,13,18,20.80
2020,10,01,13,19,20.80
2020,10,01,13,20,20.90
2020,10,01,13,21,20.90
2020,10,01,13,22,20.90
2020,10,01,13,23,21.00
2020,10,01,13,24,21.00
2020,10,01,13,25,21.10
2020,10,01,13,26,21.10
2020,10,01,13,27,21.10
2020,10,01,13,28,21.10
2020,10,01,13,29,21.10
2020,10,01,13,30,21.10
2020,10,01,13,31,21.10
2020,10,01,13,32,21.10
2020,10,01,13,33,21.10
2020,10,01,13,34,21.10
2020,10,01,13,35,21.20
2020,10,01,13,36,21.20
2020,10,01,13,37,21.20
2020,10,01,13,38,21.00
2020,10,01,13,39,20.70
2020,10,01,13,40,20.40
2020,10,01,13,41,19.90
2020,10,01,13,42,19.50
2020,10,01,13,43,19.30
2020,10,01,13,44,19.10
2020,10,01,13,45,18.90
2020,10,01,13,46,18.80
2020,10,01,13,47,18.60
2020,10,01,13,48,18.50
2020,10,01,13,49,18.40
2020,10,01,13,50,18.40
2020,10,01,13,51,18.30
2020,10,01,13,52,18.20
2020,10,01,13,53,18.10
2020,10,01,13,54,18.10
2020,10,01,13,55,18.00
2020,10,01,13,56,17.90
2020,10,01,13,57,17.90
2020,10,01,13,58,18.00
2020,10,01,13,59,17.90
2020,10,01,14,00,18.00
2020,10,01,14,01,18.00
2020,10,01,14,02,18.10
2020,10,01,14,03,18.10
2020,10,01,14,04,18.10
2020,10,01,14,05,18.10
2020,10,01,14,06,18.10
2020,10,01,14,07,18.10
2020,10,01,14,08,18.10
2020,10,01,14,09,18.10
2020,10,01,14,10,18.00
2020,10,01,14,11,18.00
2020,10,01,14,12,17.90
2020,10,01,14,13,17.90
2020,10,01,14,14,17.90
2020,10,01,14,15,18.00
2020,10,01,14,16,18.10
2020,10,01,14,17,18.20
2020,10,01,14,18,18.20
2020,10,01,14,19,18.30
2020,10,01,14,20,18.30
2020,10,01,14,21,18.30
2020,10,01,14,22,18.30
2020,10,01,14,23,18.30
2020,10,01,14,24,18.30
2020,10,01,14,25,18.30
2020,10,01,14,26,18.30
2020,10,01,14,27,18.30
2020,10,01,14,28,18.30
2020,10,01,14,29,18.30
2020,10,01,14,30,18.30
2020,10,01,14,31,18.40
2020,10,01,14,32,18.40
2020,10,01,14,33,18.40
2020,10,01,14,34,18.40
2020,10,01,14,35,18.50
2020,10,01,14,36,18.50
2020,10,01,14,37,18.50
2020,10,01,14,38,18.50
2020,10,01,14,39,18.50
2020,10,01,14,40,18.50
2020,10,01,14,41,18.60
2020,10,01,14,42,18.60
2020,10,01,14,43,18.60
2020,10,01,14,44,18.60
2020,10,01,14,45,18.60
2020,10,01,14,46,18.60
2020,10,01,14,47,18.60
2020,10,01,14,48,18.60
2020,10,01,14,49,18.70
2020,10,01,14,50,18.70
2020,10,01,14,51,18.70
2020,10,01,14,52,18.70
2020,10,01,14,53,18.70
2020,10,01,14,54,18.70
2020,10,01,14,55,18.70
2020,10,01,14,56,18.70
2020,10,01,14,57,18.60
2020,10,01,14,58,18.70
2020,10,01,14,59,18.70
2020,10,01,15,00,18.70
2020,10,01,15,01,18.70
2020,10,01,15,02,18.80
2020,10,01,15,03,18.80
2020,10,01,15,04,18.80
2020,10,01,15,05,18.80
2020,10,01,15,06,18.80
2020,10,01,15,07,18.80
2020,10,01,15,08,18.80
2020,10,01,15,09,18.70
2020,10,01,15,10,18.70
2020,10,01,15,11,18.70
2020,10,01,15,12,18.70
2020,10,01,15,13,18.70
2020,10,01,15,14,18.60
2020,10,01,15,15,18.60
2020,10,01,15,16,18.60
2020,10,01,15,17,18.60
2020,10,01,15,18,18.60
2020,10,01,15,19,18.60
2020,10,01,15,20,18.60
2020,10,01,15,21,18.60
2020,10,01,15,22,18.60
2020,10,01,15,23,18.60
2020,10,01,15,24,18.60
2020,10,01,15,25,18.60
2020,10,01,15,26,18.60
2020,10,01,15,27,18.60
2020,10,01,15,28,18.60
2020,10,01,15,29,18.60
2020,10,01,15,30,18.60
2020,10,01,15,31,18.60
2020,10,01,15,32,18.50
2020,10,01,15,33,18.50
2020,10,01,15,34,18.40
2020,10,01,15,35,18.40
2020,10,01,15,36,18.40
2020,10,01,15,37,18.40
2020,10,01,15,38,18.40
2020,10,01,15,39,18.40
2020,10,01,15,40,18.40
2020,10,01,15,41,18.30
2020,10,01,15,42,18.30
2020,10,01,15,43,18.30
2020,10,01,15,44,18.30
2020,10,01,15,45,18.30
2020,10,01,15,46,18.30
2020,10,01,15,47,18.30
2020,10,01,15,48,18.30
2020,10,01,15,49,18.20
2020,10,01,15,50,18.20
2020,10,01,15,51,18.20
2020,10,01,15,52,18.20
2020,10,01,15,53,18.20
2020,10,01,15,54,18.20
2020,10,01,15,55,18.20
2020,10,01,15,56,18.20
2020,10,01,15,57,18.20
2020,10,01,15,58,18.20
2020,10,01,15,59,18.20
2020,10,01,16,00,18.20
2020,10,01,16,01,18.20
2020,10,01,16,02,18.20
2020,10,01,16,03,18.20
2020,10,01,16,04,18.20
2020,10,01,16,05,18.20
2020,10,01,16,06,18.20
2020,10,01,16,07,18.20
2020,10,01,16,08,18.20
2020,10,01,16,09,18.20
2020,10,01,16,10,18.20
2020,10,01,16,11,18.20
2020,10,01,16,12,18.20
2020,10,01,16,13,18.20
2020,10,01,16,14,18.20
2020,10,01,16,15,18.20
2020,10,01,16,16,18.20
2020,10,01,16,17,18.20
2020,10,01,16,18,18.20
2020,10,01,16,19,18.20
2020,10,01,16,20,18.20
2020,10,01,16,21,18.20
2020,10,01,16,22,18.10
2020,10,01,16,23,18.10
2020,10,01,16,24,18.10
2020,10,01,16,25,18.10
2020,10,01,16,26,18.10
2020,10,01,16,27,18.10
2020,10,01,16,28,18.00
2020,10,01,16,29,18.00
2020,10,01,16,30,18.00
2020,10,01,16,31,17.90
2020,10,01,16,32,17.90
2020,10,01,16,33,17.90
2020,10,01,16,34,17.90
2020,10,01,16,35,17.90
2020,10,01,16,36,17.90
2020,10,01,16,37,17.90
2020,10,01,16,38,17.90
2020,10,01,16,39,17.80
2020,10,01,16,40,17.80
2020,10,01,16,41,17.80
2020,10,01,16,42,17.80
2020,10,01,16,43,17.80
2020,10,01,16,44,17.80
2020,10,01,16,45,17.80
2020,10,01,16,46,17.80
2020,10,01,16,47,17.80
2020,10,01,16,48,17.80
2020,10,01,16,49,17.90
2020,10,01,16,50,17.90
2020,10,01,16,51,17.90
2020,10,01,16,52,17.90
2020,10,01,16,53,17.90
2020,10,01,16,54,17.90
2020,10,01,16,55,17.90
2020,10,01,16,56,17.90
2020,10,01,16,57,18.00
2020,10,01,16,58,18.00
2020,10,01,16,59,18.00
2020,10,01,17,00,18.10
2020,10,01,17,01,18.10
2020,10,01,17,02,18.10
2020,10,01,17,03,18.10
2020,10,01,17,04,18.10
2020,10,01,17,05,18.10
2020,10,01,17,06,18.20
2020,10,01,17,07,18.20
2020,10,01,17,08,18.20
2020,10,01,17,09,18.20
2020,10,01,17,10,18.20
2020,10,01,17,11,18.20
2020,10,01,17,12,18.20
2020,10,01,17,13,18.20
2020,10,01,17,14,18.20
2020,10,01,17,15,18.20
2020,10,01,17,16,18.20
2020,10,01,17,17,18.20
2020,10,01,17,18,18.20
2020,10,01,17,19,18.20
2020,10,01,17,20,18.20
2020,10,01,17,21,18.20
2020,10,01,17,22,18.20